Pecs, Hungary

4:23 PM CEST on June 27, 2017 (GMT +0200)
Pecs

Weather History for LHPP - April, 2013

Change the Weather History Date:

Thursday, April 11, 2013

  Actual Average Record
Temperature  
Mean Temperature 53 °F -  
Max Temperature 65 °F 64 °F - ()
Min Temperature 41 °F 46 °F - ()
Degree Days  
Heating Degree Days 12    
Growing Degree Days 3 (Base 50)    
Moisture  
Dew Point 44 °F    
Average Humidity 65    
Maximum Humidity 87    
Minimum Humidity 45    
Precipitation  
Precipitation 0.00 in 0.08 in - ()
Sea Level Pressure  
Sea Level Pressure 29.94 in    
Wind  
Wind Speed 4 mph ()    
Max Wind Speed 9 mph    
Max Gust Speed 18 mph    
Visibility 6.2 miles    
Events      
T = Trace of Precipitation, MM = Missing Value Source: Averaged Metar Reports

Daily Weather History Graph

Daily Weather History Graph

Search for Another Location

Airport or City:

Trip Planner

Search our weather history database for the weather conditions in past years. The results will help you decide how hot, cold, wet, or windy it might be!

Date:

Astronomy

Apr. 11, 2013 Rise Set
Actual Time 6:08 AM CEST 7:28 PM CEST
Civil Twilight 5:37 AM CEST 7:59 PM CEST
Nautical Twilight 5:00 AM CEST 8:37 PM CEST
Astronomical Twilight 4:20 AM CEST 9:17 PM CEST
Moon 6:25 AM CEST (4/11) 8:51 PM CEST (4/11)
Length of Visible Light 14h 22m
Length of Day
13h 20m
New Moon, 1% of the Moon is Illuminated
Apr 11
New Moon
Apr 18
First Quarter
Apr 25
Full
May 2
Last Quarter
May 10
New

Hourly Weather History & Observations

Time (CEST) Temp. Windchill Dew Point Humidity Pressure Visibility Wind Dir Wind Speed Gust Speed Precip Events Conditions
12:45 AM 46.4 °F - 41.0 °F 81% 29.98 in - WSW 2.3 mph - N/A   Clear
1:45 AM 46.4 °F 43.5 °F 41.0 °F 81% 29.98 in - NW 5.8 mph - N/A   Clear
2:00 AM 46 °F - 40 °F 74% 29.99 in 25 mi NW 4.5 mph - -   Partly Cloudy
2:45 AM 46.4 °F 45.2 °F 41.0 °F 81% 29.95 in - NNW 3.5 mph - N/A   Clear
3:45 AM 44.6 °F - 41.0 °F 87% 29.98 in - NNE 2.3 mph - N/A   Clear
4:45 AM 42.8 °F - 39.2 °F 87% 29.98 in - ENE 2.3 mph - N/A   Clear
5:45 AM 44.6 °F - 39.2 °F 81% 29.98 in - Calm Calm - N/A   Clear
6:15 AM 44.6 °F - 39.2 °F 81% 29.95 in - NNE 2.3 mph - N/A   Clear
6:45 AM 46.4 °F - 41.0 °F 81% 29.98 in - WNW 2.3 mph - N/A   Clear
7:00 AM - - - N/A% - 6.2 mi Variable 3.5 mph - N/A   Clear
7:15 AM 46.4 °F - 41.0 °F 81% 29.98 in - Calm Calm - N/A   Clear
7:45 AM 48.2 °F - 42.8 °F 82% 29.98 in - SSW 2.3 mph - N/A   Clear
8:00 AM 48 °F - 43 °F 78% 29.99 in 47 mi SSW 2.2 mph - -   Partly Cloudy
8:15 AM 50.0 °F - 42.8 °F 76% 29.98 in - SE 3.5 mph - N/A   Clear
8:45 AM 51.8 °F - 44.6 °F 76% 29.98 in - South 2.3 mph - N/A   Clear
9:15 AM 53.6 °F - 44.6 °F 72% 29.98 in - South 2.3 mph - N/A   Clear
9:45 AM 57.2 °F - 44.6 °F 63% 29.98 in - South 2.3 mph - N/A   Clear
10:00 AM - - - N/A% - 6.2 mi Variable 3.5 mph - N/A   Clear
10:15 AM 57.2 °F - 46.4 °F 67% 29.98 in - SW 4.6 mph - N/A   Clear
10:45 AM 57.2 °F - 44.6 °F 63% 29.98 in 6.2 mi SSW 4.6 mph - N/A   Scattered Clouds
11:15 AM 59.0 °F - 44.6 °F 59% 29.98 in 6.2 mi SW 6.9 mph - N/A   Scattered Clouds
12:15 PM 60.8 °F - 46.4 °F 59% 29.95 in 6.2 mi SSW 9.2 mph - N/A   Mostly Cloudy
12:45 PM 60.8 °F - 42.8 °F 52% 29.95 in 6.2 mi SSW 8.1 mph - N/A   Scattered Clouds
1:00 PM - - - N/A% - 6.2 mi SSW 9.2 mph - N/A   Mostly Cloudy
1:15 PM 60.8 °F - 44.6 °F 55% 29.95 in 6.2 mi SW 9.2 mph - N/A   Scattered Clouds
1:45 PM 62.6 °F - 46.4 °F 55% 29.95 in 6.2 mi SSW 5.8 mph - N/A   Scattered Clouds
2:00 PM 62 °F - 46 °F 45% 29.93 in 47 mi SSW 4.5 mph - -   Partly Cloudy
2:15 PM 62.6 °F - 44.6 °F 52% 29.95 in 6.2 mi South 5.8 mph 18.4 mph N/A   Scattered Clouds
2:45 PM 64.4 °F - 46.4 °F 52% 29.92 in 6.2 mi South 5.8 mph - N/A   Scattered Clouds
3:15 PM 64.4 °F - 44.6 °F 49% 29.92 in 6.2 mi South 6.9 mph - N/A   Mostly Cloudy
3:45 PM 64.4 °F - 44.6 °F 49% 29.92 in 6.2 mi SSW 6.9 mph - N/A   Mostly Cloudy
4:00 PM - - - N/A% - 6.2 mi South 6.9 mph - N/A   Mostly Cloudy
4:15 PM 64.4 °F - 44.6 °F 49% 29.89 in 6.2 mi SSW 9.2 mph - N/A   Mostly Cloudy
4:45 PM 64.4 °F - 44.6 °F 49% 29.89 in 6.2 mi SSW 6.9 mph - N/A   Mostly Cloudy
5:15 PM 66.2 °F - 46.4 °F 49% 29.89 in 6.2 mi South 5.8 mph - N/A   Mostly Cloudy
5:45 PM 64.4 °F - 42.8 °F 45% 29.89 in 6.2 mi South 3.5 mph - N/A   Scattered Clouds
6:15 PM 62.6 °F - 46.4 °F 55% 29.89 in 6.2 mi South 4.6 mph - N/A   Scattered Clouds
6:45 PM 60.8 °F - 46.4 °F 59% 29.89 in 6.2 mi SSE 4.6 mph - N/A   Scattered Clouds
7:15 PM 59.0 °F - 44.6 °F 59% 29.86 in - SSE 5.8 mph - N/A   Clear
7:45 PM 57.2 °F - 46.4 °F 67% 29.86 in - SE 8.1 mph - N/A   Clear
8:00 PM 57 °F - 46 °F 58% 29.87 in 47 mi SE 8.9 mph - -   Partly Cloudy
8:15 PM 55.4 °F - 46.4 °F 72% 29.89 in - SSE 4.6 mph - N/A   Clear
8:45 PM 55.4 °F - 44.6 °F 67% 29.89 in - SSE 5.8 mph - N/A   Clear
9:15 PM 57.2 °F - 44.6 °F 63% 29.89 in - South 4.6 mph - N/A   Clear
9:45 PM 57.2 °F - 44.6 °F 63% 29.89 in - SW 6.9 mph - N/A   Clear
10:45 PM 55.4 °F - 42.8 °F 63% 29.89 in - WSW 3.5 mph - N/A   Clear
11:45 PM 57.2 °F - 42.8 °F 59% 29.89 in - SW 6.9 mph - N/A   Clear